This demonstration page uses our WeatherBlox Daily Observations layout. Learn more.

Left ArrowRight Arrow

Hourly Observations for April 23, 2020

Temp ( °F °C ) Dew Point ( °F °C ) Humidity (%) Winds ( mph kmh ) Pressure ( in mb ) Visibility ( mi km ) Precip ( " mm )
12:54 am 00:54 Clear 50 10 47 8.3 89 89 S 8 13 29.71 1006 8 12.87472 0 0
1:54 am 01:54 Clear 51 10.6 48 8.9 89 89 SSW 5 7 29.69 1006 9 14.48406 0 0
2:54 am 02:54 Clear with Mist and Fog 46 7.8 44 6.7 93 93 S 8 13 29.68 1005 3 4.82802 0 0
3:08 am 03:08 Clear with Mist and Fog 47 8.3 44 6.7 90 90 S 6 9 29.71 1006 2.5 4.02335 0 0
3:16 am 03:16 Clear with Mist and Fog 47 8.3 45 7.2 93 93 S 6 9 29.71 1006 4 6.43736 0 0
3:54 am 03:54 Clear with Mist and Fog 48 8.9 46 7.8 93 93 Calm 29.67 1005 4 6.43736 0 0
4:42 am 04:42 Mostly Clear with Mist and Fog 45 7.2 44 6.7 97 97 S 5 7 29.71 1006 1.25 2.011675 0 0
4:49 am 04:49 Mostly Cloudy with Mist and Fog 46 8 45 7 93 93 S 5 7 29.71 1006 1 1.60934 0 0
4:52 am 04:52 Clear with Mist and Fog 46 8 45 7 93 93 SSW 5 7 29.71 1006 2 3.21868 0 0
4:54 am 04:54 Clear with Mist and Fog 47 8.3 45 7.2 93 93 SSW 5 7 29.67 1005 4 6.43736 0 0
5:54 am 05:54 Clear with Mist and Fog 47 8.3 44 6.7 90 90 WNW 3 6 29.67 1005 6 9.65604 0 0
6:16 am 06:16 Clear with Mist and Fog 39 3.9 37 2.8 93 93 N 5 7 29.73 1007 1.75 2.816345 0 0
6:29 am 06:29 Clear with Mist and Fog 37 2.8 35 1.7 93 93 N 3 6 29.74 1007 1.25 2.011675 0 0
6:40 am 06:40 Sunny with Fog 37 2.8 36 2.2 96 96 N 6 9 29.75 1007 0.5 0.80467 0 0
6:46 am 06:46 Sunny with Mist and Fog 37 2.8 36 2.2 96 96 NNW 6 9 29.75 1007 2 3.21868 0 0
6:54 am 06:54 Sunny with Mist and Fog 38 3.3 37 2.8 97 97 NNW 5 7 29.7 1006 4 6.43736 0 0
7:54 am 07:54 Sunny 46 7.8 43 6.1 89 89 Calm 29.7 1006 8 12.87472 0 0
8:54 am 08:54 Sunny 53 11.7 46 7.8 77 77 Calm 29.71 1006 10 16.0934 0 0
9:54 am 09:54 Sunny 62 16.7 44 6.7 52 52 Calm 29.7 1006 10 16.0934 0 0
10:54 am 10:54 Sunny 68 20 45 7.2 44 44 Calm 29.69 1006 10 16.0934 0 0
11:54 am 11:54 Sunny 73 22.8 40 4.4 30 30 Calm 29.68 1005 10 16.0934 0 0
12:54 pm 12:54 Sunny 79 26.1 36 2.2 21 21 VRB 3 6 29.66 1004 10 16.0934 0 0
1:54 pm 13:54 Sunny 79 26.1 35 1.7 20 20 S 6 9 29.62 1003 10 16.0934 0 0
2:54 pm 14:54 Partly Cloudy 80 26.7 35 1.7 20 20 S 3 6 29.61 1003 10 16.0934 0 0
3:54 pm 15:54 Partly Cloudy 81 27.2 35 1.7 19 19 SSW 6 9 29.59 1002 10 16.0934 0 0
4:54 pm 16:54 Mostly Sunny 80 26.7 33 0.6 18 18 SE 5 7 29.58 1002 10 16.0934 0 0
5:54 pm 17:54 Mostly Cloudy 78 25.6 29 -1.7 16 16 undefined N/A 29.58 1002 10 16.0934 0 0
6:54 pm 18:54 Mostly Cloudy 77 25 33 0.6 20 20 WNW 3 6 29.61 1003 10 16.0934 0 0
7:54 pm 19:54 Cloudy 70 21.1 37 2.8 30 30 ENE 8 13 29.63 1003 10 16.0934 0 0
8:44 pm 20:44 Cloudy 71 21.7 37 2.8 29 29 NW 10 17 29.65 1004 10 16.0934 0 0
8:54 pm 20:54 Cloudy with Light Rain 71 21.7 38 3.3 30 30 NW 15 24 29.69 1005 10 16.0934 0.001 0.001
9:54 pm 21:54 Cloudy 69 20.6 39 3.9 33 33 NW 8 13 29.69 1006 10 16.0934 0.001 0.001
10:54 pm 22:54 Cloudy with Light Rain 64 17.8 44 6.7 48 48 N 8 13 29.71 1006 10 16.0934 0.001 0.001
11:54 pm 23:54 Mostly Cloudy 60 15.6 44 6.7 56 56 NNE 6 9 29.73 1007 10 16.0934 0.001 0.001

Powered by AerisWeather